User: anonymous   Login
Location: Unspecified
(0.0000°N, 0.0000°E)
Time: 18:30:33
(UTC+00:00)
Language:

Cosmos 1950 - Orbit

View from above orbital plane
View from above orbital plane
View from above satellite
View from above satellite

Ground track
Ground track

The orbit data is extracted from the following two-line orbital elements,

1 19195U 88046A   18174.82981668 -.00000019  00000-0 -16226-4 0  9993
2 19195  73.6010  53.8197 0023327  45.4096  70.9461 12.40886905362171
Epoch (UTC): 23 June 2018 19:54:56
Eccentricity: 0.0023327
inclination: 73.6010°
perigee height: 1484 km
apogee height: 1521 km
right ascension of ascending node: 53.8197°
argument of perigee: 45.4096°
revolutions per day: 12.40886905
mean anomaly at epoch: 70.9461°
orbit number at epoch: 36217

The dashed part of the orbit path shows where the satellite is in the earth's shadow,  

DLR